Location: Schommer Observatory
(40.5200°N, 74.4500°W)
Time: 08:42:31
(UTC-04:00)

ISS - Pass Details

Date: 15 October 2017
Orbit: 401 x 408 km, 51.6° (Epoch: 20 October)

Event Time Altitude Azimuth Distance (km) Brightness Sun altitude
Rises 20:10:46 0° 289° (WNW) 2,323 1.4 -22.3°
Reaches altitude 10° 20:13:36 10° 263° (W) 1,461 0.0 -22.8°
Maximum altitude 20:15:21 14° 230° (SW) 1,250 -0.9 -23.2°
Enters shadow 20:16:39 12° 205° (SSW) 1,367 -1.0 -23.4°
